Hourly Weather Roundup
Issued by NWS Central Illinois

Home | Current Version | Previous Version | Text Only | Print | Product List | Glossary On
Versions: 1 2 3 4 5 6 7 8 9 10 11 12 13 14 15 16 17 18 19 20 21 22 23 24 25 26 27 28 29 30 31 32 33 34 35 36 37 38 39 40 41 42 43 44 45 46 47 48 49 50
000
NZUS43 KILX 011610
HWRILX

AREA WEATHER ROUNDUP
NATIONAL WEATHER SERVICE, LINCOLN IL
1100 AM CDT SAT AUG 01 2015


CITY           SKY/WX    TMP DP  RH WIND       PRES   REMARKS
BLOOMINGTON    SUNNY     82  57  42 NW6       30.07R HX  82
CHAMPAIGN      SUNNY     81  60  48 W5        30.06R HX  82
DANVILLE       SUNNY     78  62  57 W5        30.03R HX  80
DECATUR        SUNNY     84  55  36 NE5       30.07R HX  83
EFFINGHAM      SUNNY     83  49  31 N5        30.08R HX  81
FLORA          SUNNY     82  55  39 N6        30.07S HX  81
GALESBURG      SUNNY     80  64  58 S7        30.04F HX  81
JACKSONVILLE   SUNNY     83  63  49 S3        30.07S HX  84
LACON          SUNNY     79  62  55 SW7       30.03R HX  80
LAWRENCEVILLE  SUNNY     82  58  43 NW9       30.06R HX  82
LITCHFIELD     SUNNY     80  58  46 SE5       30.07S HX  81
$$


CITY           SKY/WX    TMP DP  RH WIND       PRES   REMARKS
LINCOLN        SUNNY     83  60  44 S3        30.05S HX  83
MACOMB         SUNNY     81  60  48 SW5       30.07S HX  82
MATTOON        SUNNY     83  50  31 N6        30.06S HX  81
MT CARMEL AP   SUNNY     82  54  36 N6        30.06R HX  81
OLNEY-NOBLE AP SUNNY     81  57  44 NE6       30.07S HX  81
PARIS          SUNNY     80  58  46 CALM      30.06S HX  80
PEORIA         SUNNY     83  61  47 SW8       30.04S HX  83
PONTIAC        SUNNY     80  64  59 W5        30.05R HX  81
RANTOUL        SUNNY     82  59  45 NW6       30.06R HX  82
ROBINSON       SUNNY     80  57  45 N5        30.07R HX  80
SPRINGFIELD    SUNNY     83  58  42 SW3       30.07R HX  83
TAYLORVILLE    SUNNY     81  57  44 CALM      30.07R HX  81
$$

...REGIONAL REPORTS...


CITY           SKY/WX    TMP DP  RH WIND       PRES   REMARKS
CHICAGO O`HARE MOSUNNY   80  56  43 W14       29.99R HX  80
KANKAKEE       SUNNY     80  62  53 W6        30.03R HX  81
MOLINE         SUNNY     83  62  49 SW9       30.01F HX  84
MOUNT STERLING NOT AVBL
MOUNT VERNON   SUNNY     84  61  45 NE9       30.08R HX  84
PITTSFIELD     SUNNY     82  62  50 S5        30.08S HX  82
QUINCY         MOSUNNY   81  59  47 SE6       30.06S HX  81
ROCKFORD       MOSUNNY   80  58  46 W6        30.02R HX  80
$$


CITY           SKY/WX    TMP DP  RH WIND       PRES   REMARKS
BURLINGTON     MOSUNNY   80  65  59 S10       30.04S HX  82
CEDAR RAPIDS   MOSUNNY   78  69  73 SW12      30.01S HX  80
DES MOINES     CLOUDY    81  67  62 SW8       30.03S HX  83
KIRKSVILLE     PTSUNNY   80  69  69 VRB7      30.07S HX  83
OTTUMWA        PTSUNNY   79  68  69 S9        30.02F HX  81
ST LOUIS       PTSUNNY   84  60  44 E7        30.08S HX  84
$$


CITY           SKY/WX    TMP DP  RH WIND       PRES   REMARKS
TERRE HAUTE    SUNNY     81  52  36 N3        30.05S HX  80
EVANSVILLE     SUNNY     84  57  39 N8        30.05S HX  83
INDIANAPOLIS   MOSUNNY   80  54  40 NW12      30.03R HX  80
LAFAYETTE      SUNNY     79  59  50 NW6       30.03R HX  80
MADISON        PTSUNNY   76  59  55 CALM      29.99R
MILWAUKEE      PTSUNNY   80  51  36 NW13      29.96S HX  80
$$





USA.gov is the U.S. government's official web portal to all federal, state and local government web resources and services.